Location: Caserta
(41.0670°N, 14.3330°E)
Time: 13:08:56
(UTC+02:00)

STARLINK-1329 - Pass Details

Date: 07 October 2020
Orbit: 549 x 550 km, 53.0° (Epoch: 21 October)

Event Time Altitude Azimuth Distance (km) Brightness Sun altitude
Exits shadow 05:00:08 16° 350° (N) 1,473 5.8 -24.3°
Maximum altitude 05:00:18 16° 353° (N) 1,471 5.8 -24.3°
Drops below altitude 10° 05:02:56 10° 33° (NNE) 1,826 6.9 -23.8°
Sets 05:05:55 0° 55° (NE) 2,720 8.3 -23.3°
